Stations météo

Publicité
Agen, France (7524): Température de l'air & dewpoint: 20.05.2019 17:00:00 - 26.05.2019 17:00:00 (CEST)Agen, France (7524): Température de l'air 5cm: 20.05.2019 17:00:00 - 26.05.2019 17:00:00 (CEST)Agen, France (7524): Température de l'air -20cm & Température de l'air -100cm: 20.05.2019 17:00:00 - 26.05.2019 17:00:00 (CEST)Agen, France (7524): Vitesse du vent & gusts: 20.05.2019 17:00:00 - 26.05.2019 17:00:00 (CEST)Agen, France (7524): Direction du vent: 20.05.2019 17:00:00 - 26.05.2019 17:00:00 (CEST)Agen, France (7524): reduced air pressure: 20.05.2019 17:00:00 - 26.05.2019 17:00:00 (CEST)Agen, France (7524): visibility: 20.05.2019 17:00:00 - 26.05.2019 17:00:00 (CEST)Agen, France (7524): Ensoleillement: 20.05.2019 17:00:00 - 26.05.2019 17:00:00 (CEST)Agen, France (7524): Quantités de précipitations: 20.05.2019 17:00:00 - 26.05.2019 17:00:00 (CEST)
Date & Time tt [°C] td [°C] tt 5cm [°C] tt -20cm [°C] tt -100cm [°C] ff [km/h] ff [knt] fx [km/h] fx [knt] dd ppp [hPa] vv [km] sd [min] rr [mm]
26.05.2019 17:00:00 22,4 12,9 26,7 15,4 13,9 19 10 33 18 WNW 1018,9 20 46 0,0
26.05.2019 16:00:00 22,1 13,2 25,5 15,3 13,9 15 8 26 14 W 1019,4 51 22 0,0
26.05.2019 15:00:00 21,1 13,3 23,7 15,3 13,9 16 9 32 17 WNW 1019,9 44 16 0,0
26.05.2019 14:00:00 20,0 12,5 25,3 15,3 13,9 22 12 37 20 WNW 1020,5 32 42 0,0
26.05.2019 13:00:00 20,1 14,9 21,2 15,3 13,9 20 11 35 19 WNW 1020,8 36 35 0,0
26.05.2019 12:00:00 17,7 13,0 22,0 15,3 13,9 20 11 35 19 WNW 1021,5 42 31 0,0
26.05.2019 11:00:00 16,8 13,5 16,3 15,3 13,9 18 10 27 15 WNW 1021,7 51 10 0,0
26.05.2019 10:00:00 14,8 12,3 14,5 15,4 13,9 13 7 22 12 W 1022,0 35 0 0,0
26.05.2019 09:00:00 13,7 11,9 13,6 15,4 13,9 13 7 22 12 W 1021,7 32 0 0,0
26.05.2019 08:00:00 13,2 11,3 13,3 15,4 13,9 11 6 25 14 W 1021,6 30 0 0,0
26.05.2019 07:00:00 13,1 11,2 13,1 15,5 13,9 12 7 25 14 W 1021,5 35 0 0,0
26.05.2019 06:00:00 13,0 11,1 12,9 15,5 13,9 12 6 23 12 W 1021,4 30 0 0,0
26.05.2019 05:00:00 13,0 10,7 12,3 15,5 13,9 13 7 24 13 W 1021,7 43 0 0,0
26.05.2019 04:00:00 13,0 10,5 12,3 15,6 13,9 13 7 21 11 W 1021,9 46 0 0,0
26.05.2019 03:00:00 13,4 10,2 12,9 15,6 13,8 13 7 25 13 W 1022,2 58 0 0,0
26.05.2019 02:00:00 13,8 10,0 12,5 15,6 13,8 13 7 27 15 W 1022,6 60 0 0,0
26.05.2019 01:00:00 13,9 9,7 12,5 15,6 13,9 15 8 29 16 W 1022,8 60 0 0,0
26.05.2019 00:00:00 15,0 9,8 13,7 15,6 13,8 18 10 34 18 W 1022,8 60 0 0,0
25.05.2019 23:00:00 16,0 10,5 14,4 15,6 13,8 19 10 34 19 W 1022,5 60 0 0,0
25.05.2019 22:00:00 16,8 11,3 15,0 15,6 13,8 11 6 22 12 NW 1021,5 53 0 0,0
25.05.2019 21:00:00 17,2 11,5 15,9 15,5 13,8 12 7 23 13 NW 1021,1 60 0 0,0
25.05.2019 20:00:00 17,8 10,9 17,0 15,5 13,8 19 10 36 19 NW 1020,8 58 4 0,0
25.05.2019 19:00:00 18,5 11,6 18,5 15,4 13,8 18 10 41 22 NW 1020,5 54 4 0,0
25.05.2019 18:00:00 19,3 11,3 20,8 15,4 13,8 22 12 39 21 NNW 1020,1 41 17 0,0
25.05.2019 17:00:00 20,9 10,7 22,1 15,3 13,8 24 13 40 22 WNW 1019,7 29 44 0,0
25.05.2019 16:00:00 21,5 11,5 22,2 15,2 13,8 22 12 38 20 NW 1019,8 33 29 0,0
25.05.2019 15:00:00 19,8 11,0 23,7 15,2 13,8 25 14 36 19 WNW 1020,2 36 40 0,0
25.05.2019 14:00:00 20,8 12,0 29,5 15,2 13,8 22 12 36 19 NW 1020,2 42 60 0,0
25.05.2019 13:00:00 20,5 13,2 26,2 15,1 13,8 20 11 33 18 NW 1020,3 57 60 0,0
25.05.2019 12:00:00 19,3 12,3 24,0 15,1 13,8 18 10 33 18 NW 1020,7 60 57 0,0
25.05.2019 11:00:00 18,7 14,0 20,0 15,1 13,8 17 9 29 15 WNW 1020,4 25 58 0,0
25.05.2019 10:00:00 17,1 13,4 17,0 15,2 13,8 13 7 23 12 WNW 1020,3 24 45 0,0
25.05.2019 09:00:00 15,3 13,3 14,4 15,2 13,8 11 6 22 12 WNW 1020,0 28 4 0,0
25.05.2019 08:00:00 14,3 13,0 14,1 15,2 13,8 17 9 24 13 WNW 1019,5 18 0 0,0
25.05.2019 07:00:00 14,0 12,9 13,9 15,2 13,7 9 5 19 11 W 1019,0 16 0 0,0
25.05.2019 06:00:00 14,0 13,0 13,8 15,2 13,7 11 6 22 12 W 1018,9 16 0 0,0
25.05.2019 05:00:00 14,0 12,9 13,8 15,2 13,7 12 7 23 13 W 1018,7 19 0 0,0
25.05.2019 04:00:00 14,1 12,8 13,8 15,2 13,7 13 7 21 12 W 1018,7 21 0 0,0
25.05.2019 03:00:00 14,5 13,0 14,1 15,3 13,7 11 6 21 11 W 1018,8 22 0 0,0
25.05.2019 02:00:00 15,1 13,8 14,6 15,2 13,7 10 5 16 8 W 1018,8 27 0 0,0
25.05.2019 01:00:00 14,9 13,4 14,3 15,2 13,7 5 3 11 6 WSW 1019,1 42 0 0,0
25.05.2019 00:00:00 14,8 13,7 14,0 15,2 13,7 8 4 13 7 W 1019,0 33 0 0,0
24.05.2019 23:00:00 15,0 13,5 14,3 15,2 13,7 5 3 21 11 WNW 1019,0 31 0 0,0
24.05.2019 22:00:00 15,5 14,0 15,1 15,2 13,7 13 7 20 11 WNW 1018,5 30 0 0,0
24.05.2019 21:00:00 15,9 13,7 15,3 15,2 13,7 11 6 29 16 W 1017,6 20 0 0,0
24.05.2019 20:00:00 18,1 14,0 17,8 15,1 13,7 12 7 24 13 WNW 1017,0 47 21 0,0
24.05.2019 19:00:00 19,5 13,7 19,5 15,1 13,7 15 8 26 14 W 1016,8 41 30 0,0
24.05.2019 18:00:00 19,2 14,5 20,6 15,1 13,7 11 6 19 11 W 1016,8 45 0 0,0
24.05.2019 17:00:00 18,9 14,2 22,1 15,1 13,7 12 7 28 15 W 1017,0 34 2 0,0
24.05.2019 16:00:00 19,0 14,3 20,1 15,0 13,7 9 5 20 11 WNW 1017,6 19 18 0,0
24.05.2019 15:00:00 17,4 14,3 18,7 15,0 13,7 10 5 22 12 W 1018,1 23 0 0,0
24.05.2019 14:00:00 16,7 14,3 17,9 15,0 13,7 14 8 21 11 WNW 1018,3 15 0 0,0
24.05.2019 13:00:00 16,6 13,9 18,4 15,0 13,7 10 5 19 10 WNW 1018,4 35 0 0,0
24.05.2019 12:00:00 15,8 14,7 17,2 15,0 13,7 9 5 17 9 WNW 1018,5 9 0 0,2
24.05.2019 11:00:00 15,4 14,4 16,5 15,0 13,7 11 6 18 10 WNW 1018,6 9 0 0,2
24.05.2019 10:00:00 15,2 14,2 15,6 15,0 13,7 11 6 18 10 WNW 1018,5 10 0 0,0
24.05.2019 09:00:00 14,7 13,9 14,8 15,1 13,7 9 5 17 9 W 1018,3 12 0 0,0
24.05.2019 08:00:00 14,4 13,8 14,2 15,1 13,6 8 4 14 7 W 1018,2 8 0 0,8
24.05.2019 07:00:00 14,2 13,6 14,1 15,1 13,7 6 4 14 8 W 1017,7 5 0 1,6
24.05.2019 06:00:00 14,4 13,8 14,2 15,1 13,7 9 5 17 9 W 1017,4 5 0 3,5
24.05.2019 05:00:00 14,6 13,8 14,4 15,1 13,6 10 5 22 12 W 1017,6 4,4 0 3,6
24.05.2019 04:00:00 14,9 13,9 14,6 15,1 13,6 15 8 30 16 W 1017,5 7 0 1,0
24.05.2019 03:00:00 15,5 14,2 14,9 15,1 13,6 11 6 19 10 W 1017,8 8 0 0,6
24.05.2019 02:00:00 15,8 14,0 14,9 15,1 13,6 11 6 29 16 W 1018,0 13 0 0,0
24.05.2019 01:00:00 16,2 14,4 15,4 15,1 13,6 13 7 26 14 W 1018,1 13 0 0,0
24.05.2019 00:00:00 17,5 14,6 16,2 15,1 13,6 18 10 30 16 WSW 1017,8 22 0 0,0
23.05.2019 23:00:00 19,8 12,3 16,4 15,0 13,6 14 8 27 15 W 1017,4 55 0 0,0
23.05.2019 22:00:00 20,4 12,6 16,6 15,0 13,6 14 8 27 14 WNW 1017,0 18 0 0,0
23.05.2019 21:00:00 21,5 12,6 18,2 14,9 13,6 10 5 20 11 W 1016,2 59 8 0,0
23.05.2019 20:00:00 23,2 11,9 - - - 5 3 8 4 W 1015,5 55 - -
23.05.2019 19:00:00 22,7 11,4 - - - 5 3 18 10 NNW 1015,6 45 - 0,0
23.05.2019 18:00:00 23,6 11,0 21,7 14,6 13,6 10 5 18 10 NNW 1015,7 56 0 0,0
23.05.2019 17:00:00 24,0 11,0 - - - 9 5 15 8 NW 1015,7 55 - -
23.05.2019 16:00:00 24,9 10,0 28,5 14,4 13,6 10 5 26 14 W 1015,9 52 43 0,0
23.05.2019 15:00:00 25,9 10,9 33,4 14,3 13,6 6 4 21 11 SSW 1016,0 52 52 0,0
23.05.2019 14:00:00 24,8 9,5 33,2 14,2 13,6 9 5 19 10 NE 1016,5 30 55 0,0
23.05.2019 13:00:00 24,7 8,6 33,0 14,2 13,6 6 4 16 9 NNW 1016,9 54 60 0,0
23.05.2019 12:00:00 23,2 14,5 28,4 14,2 13,6 4 2 12 6 NE 1017,2 46 60 0,0
23.05.2019 11:00:00 20,5 14,2 22,5 14,2 13,6 6 3 18 10 ENE 1017,5 50 60 0,0
23.05.2019 10:00:00 17,8 13,1 16,7 14,3 13,6 7 4 13 7 E 1017,8 23 60 0,0
23.05.2019 09:00:00 14,7 11,8 11,5 14,3 13,6 8 5 11 6 ESE 1017,8 17 60 0,0
23.05.2019 08:00:00 12,0 11,5 4,5 14,4 13,6 5 3 8 4 E 1017,7 16 60 0,0
23.05.2019 07:00:00 8,7 8,4 3,5 14,5 13,6 5 3 8 4 ESE 1017,3 29 13 0,0
23.05.2019 06:00:00 8,3 7,5 3,6 14,6 13,6 3 2 6 4 SE 1017,2 3,1 0 0,0
23.05.2019 05:00:00 8,6 7,8 4,1 14,6 13,6 2 1 6 3 SE 1017,1 20 0 0,0
23.05.2019 04:00:00 9,4 8,6 4,4 14,7 13,6 0 0 3 1 N 1017,3 26 0 0,0
23.05.2019 03:00:00 9,6 8,5 4,9 14,8 13,6 0 0 3 2 N 1017,4 29 0 0,0
23.05.2019 02:00:00 10,3 8,9 5,5 14,8 13,6 0 0 3 1 N 1017,7 14 0 0,0
23.05.2019 01:00:00 11,3 9,2 6,4 14,8 13,6 0 0 4 2 N 1017,8 16 0 0,0
23.05.2019 00:00:00 12,7 9,1 7,2 14,8 13,6 3 1 5 3 NW 1017,9 19 0 0,0
22.05.2019 23:00:00 14,4 10,2 8,2 14,8 13,6 0 0 8 4 N 1018,1 20 0 0,0
22.05.2019 22:00:00 17,8 10,2 10,6 14,7 13,6 5 3 8 5 SW 1017,7 12 0 0,0
22.05.2019 21:00:00 22,0 8,5 16,0 14,6 13,6 6 4 18 10 N 1017,3 60 57 0,0
22.05.2019 20:00:00 23,8 9,4 21,3 14,5 13,6 8 5 16 9 NNW 1017,3 20 60 0,0
22.05.2019 19:00:00 24,0 9,9 24,5 14,4 13,6 11 6 21 11 N 1017,2 57 58 0,0
22.05.2019 18:00:00 24,4 10,3 25,2 14,2 13,6 12 6 21 12 N 1017,5 60 58 0,0
22.05.2019 17:00:00 23,1 8,4 26,0 14,1 13,5 10 6 19 10 N 1017,9 58 39 0,0
22.05.2019 16:00:00 24,3 9,1 28,0 14,0 13,6 11 6 24 13 NE 1018,1 60 44 0,0
22.05.2019 15:00:00 24,3 10,9 29,1 13,9 13,6 6 3 23 12 ESE 1018,4 49 53 0,0
22.05.2019 14:00:00 22,5 10,9 33,1 13,8 13,5 9 5 21 12 NNW 1018,9 51 51 0,0
22.05.2019 13:00:00 22,1 13,2 32,0 13,8 13,5 5 3 14 8 N 1019,3 20 60 0,0
22.05.2019 12:00:00 20,6 13,1 26,7 13,8 13,5 4 2 11 6 NNW 1019,7 20 60 0,0
22.05.2019 11:00:00 18,9 13,7 21,3 13,8 13,5 6 4 11 6 N 1019,7 19 60 0,0
22.05.2019 10:00:00 17,6 13,3 16,1 13,8 13,5 4 2 9 5 NNE 1020,0 19 60 0,0
22.05.2019 09:00:00 13,9 12,1 10,1 13,9 13,5 3 1 5 3 W 1020,0 15 60 0,0
22.05.2019 08:00:00 10,7 10,5 4,5 14,0 13,6 3 2 5 3 NNW 1019,9 10 58 0,0
22.05.2019 07:00:00 7,5 7,1 3,8 14,1 13,6 3 1 5 3 NNE 1019,7 0,2 6 0,0
22.05.2019 06:00:00 7,7 7,3 3,9 14,1 13,6 3 2 6 3 NNW 1019,4 11 0 0,0
22.05.2019 05:00:00 8,2 7,6 4,0 14,2 13,6 3 2 4 2 W 1019,4 13 0 0,0
22.05.2019 04:00:00 8,2 7,3 4,3 14,2 13,6 3 1 5 3 SW 1019,4 13 0 0,0
22.05.2019 03:00:00 9,3 8,5 5,4 14,3 13,6 4 2 8 4 SW 1019,5 20 0 0,0
22.05.2019 02:00:00 10,2 9,0 5,4 14,3 13,6 4 2 8 4 SW 1019,4 32 0 0,0
22.05.2019 01:00:00 10,0 7,9 6,3 14,3 13,6 5 3 11 6 NW 1019,4 31 0 0,0
22.05.2019 00:00:00 11,7 9,6 6,7 14,3 13,6 4 2 8 4 N 1019,5 30 0 0,0
21.05.2019 23:00:00 13,3 10,1 8,1 14,3 13,5 5 3 13 7 SSW 1019,4 46 0 0,0
21.05.2019 22:00:00 14,9 9,5 8,6 14,2 13,5 4 2 7 4 SW 1019,0 2,1 0 0,0
21.05.2019 21:00:00 18,5 9,8 14,4 14,2 13,6 5 3 14 8 WNW 1018,2 56 60 0,0
21.05.2019 20:00:00 19,8 9,9 19,0 14,0 13,5 8 4 20 11 NW 1017,8 48 60 0,0
21.05.2019 19:00:00 20,0 9,8 21,6 13,9 13,5 12 7 19 11 NW 1017,6 35 60 0,0
21.05.2019 18:00:00 20,2 11,1 24,4 13,8 13,5 11 6 21 12 WNW 1017,8 41 54 0,0
21.05.2019 17:00:00 20,0 11,5 29,8 13,8 13,5 7 4 20 11 WNW 1018,1 20 60 0,0
21.05.2019 16:00:00 18,8 12,3 28,8 13,7 13,5 9 5 29 16 N 1018,5 20 54 0,0
21.05.2019 15:00:00 17,7 12,4 21,4 13,7 13,5 8 5 18 10 NNW 1019,0 20 26 0,0
21.05.2019 14:00:00 15,4 11,4 18,4 13,7 13,5 5 3 22 12 NW 1019,4 18 0 0,0
21.05.2019 13:00:00 13,8 11,3 18,3 13,6 13,5 13 7 23 12 WNW 1019,6 17 0 0,0
21.05.2019 12:00:00 13,6 11,5 17,0 13,6 13,5 14 8 24 13 NW 1019,5 13 1 0,0
21.05.2019 11:00:00 12,0 11,1 15,6 13,7 13,6 13 7 23 13 NW 1019,2 7 0 0,0
21.05.2019 10:00:00 11,4 11,2 13,7 13,7 13,5 10 5 14 8 NW 1019,0 1,7 0 0,0
21.05.2019 09:00:00 10,7 10,5 12,0 13,7 13,5 9 5 15 8 W 1018,7 0,9 0 0,0
21.05.2019 08:00:00 9,8 9,7 4,8 13,8 13,5 4 2 7 4 W 1018,1 7 0 0,0
21.05.2019 07:00:00 7,6 7,3 3,6 13,9 13,5 4 2 6 3 WNW 1017,6 6 0 0,0
21.05.2019 06:00:00 7,6 7,2 3,6 13,9 13,5 4 2 5 3 NW 1017,2 2,6 0 0,0
21.05.2019 05:00:00 7,8 7,2 4,3 14,0 13,5 5 3 7 4 WNW 1017,0 1,3 0 0,0
21.05.2019 04:00:00 8,8 8,2 5,0 14,1 13,5 3 2 10 6 NW 1016,9 9 0 0,0
21.05.2019 03:00:00 9,8 9,3 4,9 14,1 13,6 6 4 10 6 WSW 1016,8 17 0 0,0
21.05.2019 02:00:00 9,7 8,8 5,9 14,1 13,5 5 3 10 6 W 1016,8 14 0 0,0
21.05.2019 01:00:00 11,2 10,3 6,6 14,1 13,5 5 3 8 5 WSW 1016,9 19 0 0,0
21.05.2019 00:00:00 11,1 9,2 7,1 14,1 13,5 5 3 12 6 W 1016,8 30 0 0,0
20.05.2019 23:00:00 12,0 9,9 6,9 14,1 13,5 8 4 11 6 WSW 1016,5 45 0 0,0
20.05.2019 22:00:00 13,4 10,0 9,1 14,1 13,5 8 4 12 6 W 1015,8 19 0 0,0
20.05.2019 21:00:00 14,6 9,8 12,2 14,0 13,5 4 2 18 10 W 1015,3 59 24 0,0
20.05.2019 20:00:00 15,2 10,0 14,3 14,0 13,5 14 8 31 17 WNW 1015,2 45 32 0,0
20.05.2019 19:00:00 17,2 10,8 17,0 14,0 13,5 11 6 23 13 NW 1014,6 49 20 0,0
20.05.2019 18:00:00 17,2 12,3 17,8 13,9 13,5 15 8 24 13 WSW 1014,4 60 0 0,0
20.05.2019 17:00:00 15,4 11,8 15,3 13,9 13,5 13 7 27 14 WSW 1014,5 42 0 0,0

tt = Température de l'air
td = dewpoint
tt 5cm = Température de l'air 5cm
tt -20cm = Température de l'air -20cm
tt -100cm = Température de l'air -100cm
ff = Vitesse du vent
fx = gusts
dd = Direction du vent
ppp = reduced air pressure
vv = visibility
sd = Ensoleillement
rr = Quantités de précipitations

stations d'obs. à proximité